Theta_e
287 288 288 287 287 289 286 287 283 286 287 291 294 294 296 297 297 297 298 300 300 299 299 304 306 303 300 298 294 292 291 291 292 292 292 291 291 290 291 290 288 288 286 286
280 287 287 285 289 290 289 290 290 290 289 296 297 296 296 297 298 298 299 300 299 299 300 301 298 295 294 293 292 292 291 290 291 290 290 289 289 289 288 288 287 287 286 287
282 288 287 283 290 291 292 294 292 287 292 297 295 296 297 297 298 299 299 299 298 299 294 292 291 291 288 288 290 290 290 290 290 290 289 289 289 288 287 286 285 285 284 285
282 284 276 291 298 296 293 294 295 295 296 297 297 296 296 298 296 299 300 299 298 293 291 290 290 289 289 289 289 288 289 288 288 288 288 288 287 287 286 286 285 284 284 284
282 280 285 290 294 292 289 290 297 295 296 298 300 297 294 295 294 294 296 294 292 289 288 288 288 289 288 288 287 288 287 287 287 288 287 287 286 285 284 284 283 283 284 283
283 279 278 289 294 297 296 286 295 296 296 297 295 291 290 293 292 290 289 289 288 288 288 288 288 289 288 287 288 287 288 288 289 289 287 286 284 283 283 284 283 283 282 281
284 283 285 293 297 298 285 286 295 297 297 293 290 293 294 293 291 291 291 290 290 290 289 290 291 291 289 289 287 288 289 288 287 286 284 285 284 284 283 282 282 281 280 280
284 283 279 297 298 290 293 295 295 297 297 293 292 292 292 292 291 291 291 292 292 291 291 292 292 290 286 285 286 286 285 284 284 285 286 285 283 282 281 281 279 279 279 278
289 287 297 300 297 297 296 294 293 294 297 295 292 291 290 289 288 287 287 288 289 289 288 287 286 285 283 283 284 284 284 284 284 284 284 284 282 281 280 280 278 278 277 276
293 296 298 296 298 295 294 292 293 295 298 295 291 292 291 289 288 288 288 288 287 286 284 283 284 284 283 284 285 284 283 282 281 280 281 281 281 281 279 278 277 276 276 275
293 296 296 296 295 295 293 293 293 294 295 292 291 290 289 288 288 288 287 286 285 283 282 281 282 282 284 285 284 282 281 281 280 281 280 279 279 278 277 278 279 277 276 276
289 296 295 294 295 296 292 292 292 291 291 291 290 288 288 286 288 287 285 284 282 282 282 282 283 284 284 284 283 281 279 279 279 278 278 277 277 277 283 282 282 282 281 279
295 296 296 295 294 294 291 291 292 290 290 289 289 288 287 286 286 287 284 283 282 282 282 283 283 283 283 283 282 281 278 278 278 278 276 276 276 275 274 278 283 283 282 282
299 297 294 295 292 291 291 291 291 289 289 288 287 287 286 285 284 282 281 282 283 283 282 282 281 281 282 282 280 279 279 283 276 276 276 275 275 275 274 274 273 273 279 281
298 298 296 294 291 289 289 288 287 286 286 285 285 285 284 282 281 281 282 283 283 282 281 281 280 280 281 281 279 278 277 276 276 275 275 276 275 275 274 274 273 273 274 277
295 295 294 291 289 288 288 288 286 285 285 285 284 283 282 281 281 281 281 281 280 278 278 278 278 279 280 280 278 277 277 281 278 274 274 274 274 274 274 273 273 273 273 273
291 287 288 285 288 289 289 289 287 286 285 284 282 282 281 281 281 280 280 280 279 278 278 278 278 279 279 278 277 276 275 275 279 274 274 274 274 274 273 273 273 273 273 275
295 294 294 293 292 290 290 288 287 286 283 282 282 281 281 280 278 278 278 279 278 278 278 278 278 278 277 277 276 275 275 274 274 273 274 274 274 274 273 273 273 273 273 274
295 294 295 295 294 292 290 288 286 284 283 283 282 281 281 280 279 278 278 277 277 276 277 279 282 278 276 278 277 275 274 273 273 273 273 275 273 273 273 273 272 272 272 273
293 295 296 294 293 291 288 287 284 283 283 283 282 280 279 278 279 278 278 277 277 278 279 279 277 276 275 277 278 274 273 273 272 272 272 272 272 272 272 274 273 273 272 273
292 293 292 291 290 289 288 285 284 283 283 282 281 279 278 278 278 278 277 276 278 280 279 280 276 275 275 275 275 273 273 272 272 271 271 271 271 272 272 272 272 273 273 273
290 290 290 289 288 286 286 285 284 283 282 281 280 279 278 277 277 277 278 277 278 282 278 276 275 278 276 277 273 272 272 272 271 271 270 271 271 270 269 269 269 271 271 270
289 290 288 287 285 285 284 283 282 282 281 280 279 279 278 278 278 276 275 278 278 280 276 276 279 279 278 272 272 272 272 271 271 271 269 267 268 266 266 267 268 269 268 270
288 287 287 286 284 283 280 280 280 279 280 279 279 279 279 277 276 277 279 281 282 280 277 277 277 278 276 272 271 271 271 271 268 266 268 273 266 266 267 267 267 268 269 270
280 280 279 280 280 279 278 278 278 279 278 278 278 279 278 278 277 277 278 279 283 278 276 280 278 276 272 271 271 270 269 267 264 266 267 266 265 265 266 267 267 268 270 269
281 281 281 281 280 279 280 280 278 278 278 277 277 277 277 278 279 278 278 278 277 278 274 274 272 272 271 271 271 270 269 268 269 268 269 266 266 266 266 267 268 269 269 269
279 281 277 278 279 281 280 280 278 278 279 278 276 277 277 277 277 276 277 274 273 272 272 271 271 272 271 270 270 270 268 267 271 269 266 264 265 265 267 267 268 269 269 269
Wind_Speed
9 12 11 10 12 13 13 16 14 23 25 26 22 22 20 12 8 11 12 14 5 5 3 1 6 9 12 14 14 13 14 13 14 15 15 15 14 13 12 9 9 8 8 7
6 12 14 15 16 13 15 17 18 19 22 15 17 8 9 13 12 11 11 4 7 6 2 5 11 9 10 12 10 13 13 13 14 15 15 14 13 12 11 9 9 8 7 6
4 7 11 7 8 10 7 10 9 10 15 15 15 11 8 7 10 10 8 4 7 6 11 11 10 10 11 10 11 13 13 14 14 15 15 13 12 12 10 7 7 8 6 5
5 8 2 2 7 7 9 6 4 13 13 12 11 6 10 11 11 11 8 7 8 10 11 11 10 11 12 12 13 13 13 14 14 14 14 12 10 8 6 6 7 6 5 4
3 3 8 7 3 3 3 5 6 8 9 10 10 5 8 13 14 13 12 11 11 12 12 12 13 13 13 13 14 14 13 15 14 13 12 10 11 8 5 6 6 5 4 4
2 3 3 1 3 4 6 3 4 4 7 11 10 4 3 11 11 13 13 12 13 13 13 14 13 14 14 14 15 13 12 12 12 13 11 6 6 7 5 5 4 4 4 2
5 4 8 6 7 6 4 5 2 1 4 6 5 4 7 10 12 12 13 14 13 14 14 14 13 15 15 13 13 12 12 9 8 9 9 9 7 6 4 5 4 3 2 2
4 5 7 3 6 1 3 4 5 2 2 6 8 10 9 8 8 10 12 13 13 13 12 11 13 13 13 10 10 9 11 11 10 8 8 7 6 5 5 5 4 4 4 3
7 7 7 6 1 6 5 3 4 2 4 7 8 9 9 7 9 9 10 11 11 12 13 10 12 12 14 10 11 12 11 10 9 9 7 6 6 5 3 4 4 3 3 3
4 6 4 5 5 6 5 5 4 3 6 6 10 7 11 9 9 9 9 10 11 12 13 12 10 10 10 11 10 11 11 9 7 7 6 6 4 4 4 4 4 4 4 4
5 8 3 5 5 4 6 5 5 5 5 8 11 7 7 7 7 8 8 10 10 11 11 12 11 10 9 10 11 11 9 7 6 5 6 5 4 4 4 4 4 2 2 2
4 2 1 3 5 4 6 4 6 7 7 7 9 10 9 8 7 8 11 11 11 12 12 12 11 11 10 9 9 9 7 5 5 5 4 4 4 4 3 3 2 1 3 3
1 4 4 7 6 5 7 6 7 7 7 8 8 10 10 10 9 14 11 12 11 12 12 11 11 11 7 7 8 9 7 6 5 6 5 4 4 4 4 4 9 9 5 9
5 6 3 5 4 7 8 8 10 8 7 9 10 9 11 11 12 11 11 12 12 12 12 12 11 10 7 9 9 8 7 13 5 5 4 4 4 3 3 3 3 4 6 10
5 5 4 9 9 7 7 9 11 8 9 9 9 10 10 13 12 11 10 12 13 13 11 10 10 8 7 7 8 7 6 5 5 4 3 3 3 3 3 3 3 4 4 6
7 7 8 7 8 7 7 7 10 9 9 10 11 11 11 12 11 11 10 9 11 9 8 9 9 6 7 7 8 6 6 9 7 4 3 4 3 3 4 4 4 4 4 4
4 1 2 3 7 8 8 7 8 9 10 11 12 12 13 13 11 11 10 10 10 10 7 8 7 7 7 7 7 4 4 4 6 4 3 3 3 4 3 3 4 4 4 5
4 1 8 9 11 10 8 10 10 11 11 13 13 12 12 11 12 11 10 11 11 10 8 7 7 7 7 6 6 4 4 3 3 3 3 3 3 3 3 3 4 4 5 6
2 3 6 9 9 10 10 11 11 12 13 12 13 11 11 11 11 10 10 10 10 10 4 6 12 9 6 7 6 4 4 3 3 3 3 5 4 3 3 4 4 4 4 6
2 1 6 7 8 10 11 10 13 13 12 12 13 13 12 10 10 10 8 7 5 6 6 7 7 6 6 6 7 3 3 3 3 3 3 3 3 4 4 6 6 5 4 5
3 4 6 8 8 9 10 11 13 13 12 13 13 13 12 10 8 11 11 8 5 8 7 11 6 4 4 4 5 3 3 3 3 3 3 3 4 4 4 4 4 5 6 6
2 3 5 7 9 9 10 11 11 12 13 12 12 13 13 11 8 7 5 8 5 13 6 4 4 7 4 6 3 3 3 3 2 2 3 3 3 3 3 3 4 4 4 4
3 2 4 5 7 9 9 10 11 12 13 13 14 14 11 8 7 10 8 6 5 9 5 4 9 9 6 4 3 2 2 2 2 2 2 3 3 2 2 4 4 3 4 5
2 1 3 5 7 9 10 6 8 9 10 10 11 11 13 9 4 4 9 13 15 11 6 6 7 7 5 3 2 2 1 2 1 2 3 7 2 3 3 3 4 4 4 8
3 2 4 5 6 5 7 8 10 10 11 11 10 7 8 4 5 6 7 7 15 9 5 10 8 6 3 2 2 1 2 2 2 2 2 3 3 3 3 4 4 5 6 5
1 2 2 2 5 5 6 7 8 8 9 9 7 6 5 7 9 8 7 9 6 10 5 4 3 3 2 1 1 2 2 2 2 3 4 3 3 3 4 4 4 6 7 7
2 4 3 4 3 6 6 7 9 9 9 9 10 7 8 8 9 9 11 6 5 5 4 3 3 2 1 0 2 2 2 2 5 3 2 3 3 4 4 4 5 6 7 7
Wind_Direction
280 290 294 285 271 259 236 247 250 280 279 292 298 290 284 276 223 247 253 259 188 139 268 210 94 92 100 100 106 114 121 129 133 130 125 121 120 118 115 115 109 106 105 94
281 271 266 256 258 258 262 268 266 269 277 275 272 287 15 351 334 318 307 82 118 135 158 77 99 94 90 101 103 117 124 126 122 118 114 113 111 107 105 111 116 108 94 104
263 325 306 269 227 225 236 235 269 283 293 301 303 321 340 295 288 286 287 146 134 127 102 89 89 93 87 86 99 110 121 119 114 111 108 107 107 106 117 130 114 105 112 121
278 298 277 188 209 216 255 276 251 273 293 310 299 105 37 348 323 277 259 127 113 106 99 98 99 96 103 100 104 108 113 106 101 102 103 103 102 95 107 119 111 113 109 102
278 287 267 310 89 286 258 275 231 278 314 321 328 141 42 2 9 34 69 81 86 93 97 99 102 106 106 106 104 106 100 99 100 103 104 106 118 118 116 96 92 93 102 89
4 317 281 56 77 126 97 256 221 247 336 341 354 35 3 22 34 53 63 73 87 96 97 95 99 108 101 98 96 92 87 84 84 93 104 128 106 95 93 96 107 96 78 62
222 254 281 301 321 137 3 282 55 95 327 27 68 66 63 54 57 62 73 83 89 85 86 96 94 96 95 101 98 106 108 110 130 117 111 107 102 86 108 91 86 85 86 352
183 209 265 209 337 359 288 358 350 142 92 98 94 88 82 74 102 100 89 92 96 104 106 102 106 106 100 110 142 133 109 105 103 104 96 86 101 88 77 70 62 41 42 13
198 214 264 332 297 72 36 337 4 344 129 110 106 116 112 88 62 83 96 110 123 125 125 120 123 126 117 112 108 105 102 100 97 97 101 97 92 84 79 58 57 31 25 19
175 236 242 52 55 73 57 48 352 357 142 132 125 116 122 125 118 107 96 92 88 91 92 94 94 99 105 111 112 109 108 105 97 96 91 84 78 66 56 58 41 28 23 14
251 276 121 90 78 55 80 69 65 27 102 119 122 118 109 104 107 117 121 109 105 104 100 98 101 99 103 108 110 101 93 91 85 81 83 78 79 81 72 69 80 42 356 347
238 158 111 97 94 57 93 88 94 96 89 98 112 114 108 100 99 97 96 101 100 101 103 103 103 97 92 91 92 99 93 83 82 78 71 65 56 42 36 90 64 14 330 321
233 111 92 104 91 102 111 100 87 94 97 106 96 113 113 110 103 103 101 104 104 109 107 102 95 86 73 76 82 85 91 86 79 72 64 52 42 40 16 350 6 353 323 332
114 123 129 166 157 119 110 105 101 95 94 103 101 103 112 108 106 101 103 112 110 103 97 94 86 78 70 77 81 78 77 84 75 70 58 48 38 20 16 6 342 329 334 340
178 140 86 110 105 113 115 117 109 112 118 110 104 111 109 111 110 110 108 107 102 97 94 92 86 74 73 80 80 77 71 67 72 73 65 47 30 10 9 0 340 325 336 350
61 90 118 125 132 138 139 144 133 131 128 121 116 111 110 107 105 100 101 106 110 106 96 94 87 86 83 84 83 74 69 79 76 60 45 30 17 9 3 351 340 339 336 318
108 89 116 132 158 163 165 145 133 134 132 123 119 119 115 115 104 96 93 90 94 93 93 96 93 79 73 78 88 96 94 67 60 53 39 21 14 9 348 340 336 328 317 325
221 18 181 166 170 161 153 135 136 134 130 129 126 125 123 117 117 112 107 104 95 84 80 89 89 81 73 76 82 79 80 78 64 57 23 9 343 331 337 339 336 330 327 328
127 193 175 166 164 155 145 142 138 126 133 134 131 124 116 114 116 115 113 108 107 107 99 98 104 92 81 84 79 75 76 62 48 37 21 2 352 354 349 339 326 323 320 326
53 104 148 144 135 140 140 135 131 132 138 135 122 120 118 120 124 121 113 102 112 122 127 115 102 98 94 80 88 75 70 61 40 24 354 11 345 344 335 339 336 327 318 319
52 96 112 120 129 133 136 139 139 141 137 134 133 133 132 128 116 123 116 114 122 125 125 117 116 107 109 101 84 75 58 42 26 11 349 342 342 343 339 336 323 320 315 318
39 113 131 133 135 128 136 139 138 133 135 129 126 129 126 121 118 94 83 131 135 132 116 108 116 120 122 98 88 75 57 31 7 353 347 341 332 320 302 301 302 296 300 299
358 116 126 130 135 136 125 130 136 142 138 140 141 141 139 136 136 133 131 153 126 134 119 118 131 121 114 93 86 68 35 5 340 346 323 294 272 274 278 286 278 290 298 300
359 60 129 117 115 121 130 130 115 118 124 126 132 138 139 130 88 90 126 143 143 132 126 129 128 123 107 97 83 51 349 325 321 307 287 322 308 290 289 283 292 297 291 303
50 36 75 102 119 125 116 120 116 122 122 120 120 116 120 110 122 141 127 134 142 121 120 136 133 123 103 99 92 9 289 268 264 248 285 281 285 287 283 286 289 295 290 292
188 158 162 155 136 130 138 143 139 142 138 130 115 114 107 111 124 125 123 125 124 134 121 130 138 124 119 105 36 304 295 309 321 296 296 287 287 289 290 290 298 296 292 292
308 120 102 109 132 148 158 156 152 156 150 144 130 130 127 121 130 125 128 123 118 126 129 132 131 134 110 85 300 289 288 287 309 278 263 276 278 273 279 280 289 289 288 289